Location: Nairn
(57.5833°N, 3.8667°W)
Time: 01:24:45
(UTC+00:00)

Transit 2A - Pass Details

Date: 26 November 2020
Orbit: 598 x 960 km, 66.7° (Epoch: 20 January)

Event Time Altitude Azimuth Distance (km) Brightness Sun altitude
Rises 18:49:28 0° 211° (SSW) 3,623 9.9 -23.9°
Reaches altitude 10° 18:52:05 10° 208° (SSW) 2,662 9.1 -24.2°
Maximum altitude 18:58:15 65° 129° (SE) 997 6.3 -25.1°
Enters shadow 18:58:44 62° 103° (ESE) 1,012 6.2 -25.1°
